User: anonymous   Login
Location: San Antonio
(29.4240°N, 98.4930°W)
Time: 20:41:01
(UTC-05:00)
Language:

Hubble Space Telescope - Orbit

View from above orbital plane
View from above orbital plane
View from above satellite
View from above satellite

Ground track
Ground track

The orbit data is extracted from the following two-line orbital elements,

1 20580U 90037B   24200.48158397  .00009133  00000-0  42571-3 0  9995
2 20580  28.4679 135.3944 0002489  18.5628 341.5055 15.18143892681791
Epoch (UTC): 18 July 2024 11:33:28
Eccentricity: 0.0002489
inclination: 28.4679°
perigee height: 510 km
apogee height: 513 km
right ascension of ascending node: 135.3944°
argument of perigee: 18.5628°
revolutions per day: 15.18143892
mean anomaly at epoch: 341.5055°
orbit number at epoch: 68179

The dashed part of the orbit path shows where the satellite is in the earth's shadow,  

DLR